Location: PSU-Greenbush Astrophysical Observatory
(37.5140°N, 94.9880°W)
Time: 20:53:09
(UTC-06:00)

XW-2D - Visible Passes

Search period start: 27 February 2020 00:00
Search period end: 08 March 2020 00:00
Orbit: 507 x 528 km, 97.5° (Epoch: 27 February)

Date Brightness Start Highest point End Pass type
(mag) Time Alt. Az. Time Alt. Az. Time Alt. Az.
27 Feb ? 06:11:51 10° NNE 06:15:38 78° ESE 06:19:25 10° S visible
28 Feb ? 05:57:39 10° NNE 06:01:20 48° E 06:05:00 10° S visible
29 Feb ? 05:43:36 10° NNE 05:47:00 31° E 05:50:24 10° SSE visible
01 Mar ? 05:29:43 10° NE 05:32:38 21° E 05:35:33 10° SE visible
02 Mar ? 05:16:12 10° ENE 05:18:15 14° E 05:20:19 10° SE visible
04 Mar ? 06:20:07 10° N 06:23:56 81° WNW 06:27:44 10° SSW visible
05 Mar ? 06:05:51 10° NNE 06:09:38 64° E 06:13:25 10° S visible
06 Mar ? 05:51:42 10° NNE 05:55:19 40° E 05:58:55 10° S visible
07 Mar ? 05:37:43 10° NE 05:40:59 26° E 05:44:13 10° SSE visible
